#Datum;Uhrzeit;WR;Pac;DaySum;Status;WR;Pac;DaySum;Status;Pdc1;Udc;Temp;WR;Pac;DaySum;Status;Pdc1;Udc;Temp;WR;Pac;DaySum;Status;Pdc1;Udc;Temp;WR;Pac;DaySum;Status;Pdc1;Pdc2;Udc1;Udc2;Temp;WR;Pac;DaySum;Status;Pdc1;Pdc2;Udc1;Udc2;Temp;WR;Pac;DaySum;Status;Pdc1;Udc;Temp;WR;Pac;DaySum;Status;Pdc1;Udc;Temp;WR;Pac;DaySum;Status;Pdc1;Udc;Temp
04.12.17;23:55:00;1;1033;13803;0;2;0;0;0;0;0;0;3;0;2;0;0;0;0;4;0;0;0;0;0;0;5;0;23;0;0;0;0;0;0;6;0;0;0;0;0;0;0;0;7;0;0;0;0;0;0;8;0;0;0;0;0;0;9;0;1;0;0;0;0
04.12.17;23:50:00;1;368;13744;0;2;0;0;0;0;0;0;3;0;2;0;0;0;0;4;0;0;0;0;0;0;5;0;23;0;0;0;0;0;0;6;0;0;0;0;0;0;0;0;7;0;0;0;0;0;0;8;0;0;0;0;0;0;9;0;1;0;0;0;0
04.12.17;23:45:00;1;388;13713;0;2;0;0;0;0;0;0;3;0;2;0;0;0;0;4;0;0;0;0;0;0;5;0;23;0;0;0;0;0;0;6;0;0;0;0;0;0;0;0;7;0;0;0;0;0;0;8;0;0;0;0;0;0;9;0;1;0;0;0;0
04.12.17;23:40:00;1;378;13652;0;2;0;0;0;0;0;0;3;0;2;0;0;0;0;4;0;0;0;0;0;0;5;0;23;0;0;0;0;0;0;6;0;0;0;0;0;0;0;0;7;0;0;0;0;0;0;8;0;0;0;0;0;0;9;0;1;0;0;0;0
04.12.17;23:35:00;1;446;13620;0;2;0;0;0;0;0;0;3;0;2;0;0;0;0;4;0;0;0;0;0;0;5;0;23;0;0;0;0;0;0;6;0;0;0;0;0;0;0;0;7;0;0;0;0;0;0;8;0;0;0;0;0;0;9;0;1;0;0;0;0
04.12.17;23:30:00;1;1189;13582;0;2;0;0;0;0;0;0;3;0;2;0;0;0;0;4;0;0;0;0;0;0;5;0;23;0;0;0;0;0;0;6;0;0;0;0;0;0;0;0;7;0;0;0;0;0;0;8;0;0;0;0;0;0;9;0;1;0;0;0;0
04.12.17;23:25:00;1;570;13501;0;2;0;0;0;0;0;0;3;0;2;0;0;0;0;4;0;0;0;0;0;0;5;0;23;0;0;0;0;0;0;6;0;0;0;0;0;0;0;0;7;0;0;0;0;0;0;8;0;0;0;0;0;0;9;0;1;0;0;0;0
04.12.17;23:20:00;1;951;13454;0;2;0;0;0;0;0;0;3;0;2;0;0;0;0;4;0;0;0;0;0;0;5;0;23;0;0;0;0;0;0;6;0;0;0;0;0;0;0;0;7;0;0;0;0;0;0;8;0;0;0;0;0;0;9;0;1;0;0;0;0
04.12.17;23:15:00;1;600;13380;0;2;0;0;0;0;0;0;3;0;2;0;0;0;0;4;0;0;0;0;0;0;5;0;23;0;0;0;0;0;0;6;0;0;0;0;0;0;0;0;7;0;0;0;0;0;0;8;0;0;0;0;0;0;9;0;1;0;0;0;0
04.12.17;23:10:00;1;596;13330;0;2;0;0;0;0;0;0;3;0;2;0;0;0;0;4;0;0;0;0;0;0;5;0;23;0;0;0;0;0;0;6;0;0;0;0;0;0;0;0;7;0;0;0;0;0;0;8;0;0;0;0;0;0;9;0;1;0;0;0;0
04.12.17;23:05:00;1;1277;13280;0;2;0;0;0;0;0;0;3;0;2;0;0;0;0;4;0;0;0;0;0;0;5;0;23;0;0;0;0;0;0;6;0;0;0;0;0;0;0;0;7;0;0;0;0;0;0;8;0;0;0;0;0;0;9;0;1;0;0;0;0
04.12.17;23:00:00;1;524;13206;0;2;0;0;0;0;0;0;3;0;2;0;0;0;0;4;0;0;0;0;0;0;5;0;23;0;0;0;0;0;0;6;0;0;0;0;0;0;0;0;7;0;0;0;0;0;0;8;0;0;0;0;0;0;9;0;1;0;0;0;0
04.12.17;22:55:00;1;863;13162;0;2;0;0;0;0;0;0;3;0;2;0;0;0;0;4;0;0;0;0;0;0;5;0;23;2;0;0;0;0;0;6;0;0;2;0;0;0;0;0;7;0;0;0;0;0;0;8;0;0;0;0;0;0;9;0;1;0;0;0;0
04.12.17;22:50:00;1;598;13088;0;2;0;0;0;0;0;0;3;0;2;0;0;0;0;4;0;0;0;0;0;0;5;0;23;2;0;0;0;0;0;6;0;0;2;0;0;0;0;0;7;0;0;0;0;0;0;8;0;0;0;0;0;0;9;0;1;0;0;0;0
04.12.17;22:45:00;1;589;13036;0;2;0;0;0;0;0;0;3;0;2;0;0;0;0;4;0;0;0;0;0;0;5;0;23;2;0;0;0;0;0;6;0;0;2;0;0;0;0;0;7;0;0;0;0;0;0;8;0;0;0;0;0;0;9;0;1;0;0;0;0
04.12.17;22:40:00;1;965;12985;0;2;0;0;0;0;0;0;3;0;2;0;0;0;0;4;0;0;0;0;0;0;5;0;23;2;0;0;0;0;0;6;0;0;2;0;0;0;0;0;7;0;0;0;0;0;0;8;0;0;0;0;0;0;9;0;1;0;0;0;0
04.12.17;22:35:00;1;677;12906;0;2;0;0;0;0;0;0;3;0;2;0;0;0;0;4;0;0;0;0;0;0;5;0;23;2;0;0;0;0;0;6;0;0;2;0;0;0;0;0;7;0;0;0;0;0;0;8;0;0;0;0;0;0;9;0;1;0;0;0;0
04.12.17;22:30:00;1;708;12849;0;2;0;0;0;0;0;0;3;0;2;0;0;0;0;4;0;0;0;0;0;0;5;0;23;2;0;0;0;0;0;6;0;0;2;0;0;0;0;0;7;0;0;0;0;0;0;8;0;0;0;0;0;0;9;0;1;0;0;0;0
04.12.17;22:25:00;1;705;12764;0;2;0;0;0;0;0;0;3;0;2;0;0;0;0;4;0;0;0;0;0;0;5;0;23;2;0;0;0;0;0;6;0;0;2;0;0;0;0;0;7;0;0;0;0;0;0;8;0;0;0;0;0;0;9;0;1;0;0;0;0
04.12.17;22:20:00;1;691;12705;0;2;0;0;0;0;0;0;3;0;2;0;0;0;0;4;0;0;0;0;0;0;5;0;23;2;0;0;0;0;0;6;0;0;2;0;0;0;0;0;7;0;0;0;0;0;0;8;0;0;0;0;0;0;9;0;1;0;0;0;0
04.12.17;22:15:00;1;1332;12647;0;2;0;0;0;0;0;0;3;0;2;0;0;0;0;4;0;0;0;0;0;0;5;0;23;2;0;0;0;0;0;6;0;0;2;0;0;0;0;0;7;0;0;0;0;0;0;8;0;0;0;0;0;0;9;0;1;0;0;0;0
04.12.17;22:10:00;1;662;12561;0;2;0;0;0;0;0;0;3;0;2;0;0;0;0;4;0;0;0;0;0;0;5;0;23;2;0;0;0;0;0;6;0;0;2;0;0;0;0;0;7;0;0;0;0;0;0;8;0;0;0;0;0;0;9;0;1;0;0;0;0
04.12.17;22:05:00;1;1330;12506;0;2;0;0;0;0;0;0;3;0;2;0;0;0;0;4;0;0;0;0;0;0;5;0;23;2;0;0;0;0;0;6;0;0;2;0;0;0;0;0;7;0;0;0;0;0;0;8;0;0;0;0;0;0;9;0;1;0;0;0;0
04.12.17;22:00:00;1;724;12426;0;2;0;0;0;0;0;0;3;0;2;0;0;0;0;4;0;0;0;0;0;0;5;0;23;2;0;0;0;0;0;6;0;0;2;0;0;0;0;0;7;0;0;0;0;0;0;8;0;0;0;0;0;0;9;0;1;0;0;0;0
04.12.17;21:55:00;1;1018;12367;0;2;0;0;0;0;0;0;3;0;2;0;0;0;0;4;0;0;0;0;0;0;5;0;23;2;0;0;0;0;0;6;0;0;2;0;0;0;0;0;7;0;0;0;0;0;0;8;0;0;0;0;0;0;9;0;1;0;0;0;0
04.12.17;21:50:00;1;670;12285;0;2;0;0;0;0;0;0;3;0;2;0;0;0;0;4;0;0;0;0;0;0;5;0;23;2;0;0;0;0;0;6;0;0;2;0;0;0;0;0;7;0;0;0;0;0;0;8;0;0;0;0;0;0;9;0;1;0;0;0;0
04.12.17;21:45:00;1;669;12230;0;2;0;0;0;0;0;0;3;0;2;0;0;0;0;4;0;0;0;0;0;0;5;0;23;2;0;0;0;0;0;6;0;0;2;0;0;0;0;0;7;0;0;0;0;0;0;8;0;0;0;0;0;0;9;0;1;0;0;0;0
04.12.17;21:40:00;1;971;12174;0;2;0;0;0;0;0;0;3;0;2;0;0;0;0;4;0;0;0;0;0;0;5;0;23;2;0;0;0;0;0;6;0;0;2;0;0;0;0;0;7;0;0;0;0;0;0;8;0;0;0;0;0;0;9;0;1;0;0;0;0
04.12.17;21:35:00;1;720;12092;0;2;0;0;0;0;0;0;3;0;2;0;0;0;0;4;0;0;0;0;0;0;5;0;23;2;0;0;0;0;0;6;0;0;2;0;0;0;0;0;7;0;0;0;0;0;0;8;0;0;0;0;0;0;9;0;1;0;0;0;0
04.12.17;21:30:00;1;1372;12031;0;2;0;0;0;0;0;0;3;0;2;0;0;0;0;4;0;0;0;0;0;0;5;0;23;2;0;0;0;0;0;6;0;0;2;0;0;0;0;0;7;0;0;0;0;0;0;8;0;0;0;0;0;0;9;0;1;0;0;0;0
04.12.17;21:25:00;1;818;11938;0;2;0;0;0;0;0;0;3;0;2;0;0;0;0;4;0;0;0;0;0;0;5;0;23;2;0;0;0;0;0;6;0;0;2;0;0;0;0;0;7;0;0;0;0;0;0;8;0;0;0;0;0;0;9;0;1;0;0;0;0
04.12.17;21:20:00;1;785;11869;0;2;0;0;0;0;0;0;3;0;2;0;0;0;0;4;0;0;0;0;0;0;5;0;23;2;0;0;0;0;0;6;0;0;2;0;0;0;0;0;7;0;0;0;0;0;0;8;0;0;0;0;0;0;9;0;1;0;0;0;0
04.12.17;21:15:00;1;771;11782;0;2;0;0;0;0;0;0;3;0;2;0;0;0;0;4;0;0;0;0;0;0;5;0;23;2;0;0;0;0;0;6;0;0;2;0;0;0;0;0;7;0;0;0;0;0;0;8;0;0;0;0;0;0;9;0;1;0;0;0;0
04.12.17;21:10:00;1;747;11719;0;2;0;0;0;0;0;0;3;0;2;0;0;0;0;4;0;0;0;0;0;0;5;0;23;2;0;0;0;0;0;6;0;0;2;0;0;0;0;0;7;0;0;0;0;0;0;8;0;0;0;0;0;0;9;0;1;0;0;0;0
04.12.17;21:05:00;1;796;11656;0;2;0;0;0;0;0;0;3;0;2;0;0;0;0;4;0;0;0;0;0;0;5;0;23;2;0;0;0;0;0;6;0;0;2;0;0;0;0;0;7;0;0;0;0;0;0;8;0;0;0;0;0;0;9;0;1;0;0;0;0
04.12.17;21:00:00;1;742;11565;0;2;0;0;0;0;0;0;3;0;2;0;0;0;0;4;0;0;0;0;0;0;5;0;23;2;0;0;0;0;0;6;0;0;2;0;0;0;0;0;7;0;0;0;0;0;0;8;0;0;0;0;0;0;9;0;1;0;0;0;0
04.12.17;20:55:00;1;1048;11503;0;2;0;0;0;0;0;0;3;0;2;0;0;0;0;4;0;0;0;0;0;0;5;0;23;2;0;0;0;0;0;6;0;0;2;0;0;0;0;0;7;0;0;0;0;0;0;8;0;0;0;0;0;0;9;0;1;0;0;0;0
04.12.17;20:50:00;1;716;11414;0;2;0;0;0;0;0;0;3;0;2;0;0;0;0;4;0;0;0;0;0;0;5;0;23;2;0;0;0;0;0;6;0;0;2;0;0;0;0;0;7;0;0;0;0;0;0;8;0;0;0;0;0;0;9;0;1;0;0;0;0
04.12.17;20:45:00;1;738;11355;0;2;0;0;0;0;0;0;3;0;2;0;0;0;0;4;0;0;0;0;0;0;5;0;23;2;0;0;0;0;0;6;0;0;2;0;0;0;0;0;7;0;0;0;0;0;0;8;0;0;0;0;0;0;9;0;1;0;0;0;0
04.12.17;20:40:00;1;1221;11293;0;2;0;0;0;0;0;0;3;0;2;0;0;0;0;4;0;0;0;0;0;0;5;0;23;2;0;0;0;0;0;6;0;0;2;0;0;0;0;0;7;0;0;0;0;0;0;8;0;0;0;0;0;0;9;0;1;0;0;0;0
04.12.17;20:35:00;1;813;11197;0;2;0;0;0;0;0;0;3;0;2;0;0;0;0;4;0;0;0;0;0;0;5;0;23;2;0;0;0;0;0;6;0;0;2;0;0;0;0;0;7;0;0;0;0;0;0;8;0;0;0;0;0;0;9;0;1;0;0;0;0
04.12.17;20:30:00;1;1353;11133;0;2;0;0;0;0;0;0;3;0;2;0;0;0;0;4;0;0;0;0;0;0;5;0;23;2;0;0;0;0;0;6;0;0;2;0;0;0;0;0;7;0;0;0;0;0;0;8;0;0;0;0;0;0;9;0;1;0;0;0;0
04.12.17;20:25:00;1;770;11047;0;2;0;0;0;0;0;0;3;0;2;0;0;0;0;4;0;0;0;0;0;0;5;0;23;2;0;0;0;0;0;6;0;0;2;0;0;0;0;0;7;0;0;0;0;0;0;8;0;0;0;0;0;0;9;0;1;0;0;0;0
04.12.17;20:20:00;1;814;10984;0;2;0;0;0;0;0;0;3;0;2;0;0;0;0;4;0;0;0;0;0;0;5;0;23;2;0;0;0;0;0;6;0;0;2;0;0;0;0;0;7;0;0;0;0;0;0;8;0;0;0;0;0;0;9;0;1;0;0;0;0
04.12.17;20:15:00;1;1060;10916;0;2;0;0;0;0;0;0;3;0;2;0;0;0;0;4;0;0;0;0;0;0;5;0;23;2;0;0;0;0;0;6;0;0;2;0;0;0;0;0;7;0;0;0;0;0;0;8;0;0;0;0;0;0;9;0;1;0;0;0;0
04.12.17;20:10:00;1;744;10828;0;2;0;0;0;0;0;0;3;0;2;0;0;0;0;4;0;0;0;0;0;0;5;0;23;2;0;0;0;0;0;6;0;0;2;0;0;0;0;0;7;0;0;0;0;0;0;8;0;0;0;0;0;0;9;0;1;0;0;0;0
04.12.17;20:05:00;1;1016;10766;0;2;0;0;0;0;0;0;3;0;2;0;0;0;0;4;0;0;0;0;0;0;5;0;23;2;0;0;0;0;0;6;0;0;2;0;0;0;0;0;7;0;0;0;0;0;0;8;0;0;0;0;0;0;9;0;1;0;0;0;0
04.12.17;20:00:00;1;612;10682;0;2;0;0;0;0;0;0;3;0;2;0;0;0;0;4;0;0;0;0;0;0;5;0;23;2;0;0;0;0;0;6;0;0;2;0;0;0;0;0;7;0;0;0;0;0;0;8;0;0;0;0;0;0;9;0;1;0;0;0;0
04.12.17;19:55:00;1;615;10631;0;2;0;0;0;0;0;0;3;0;2;0;0;0;0;4;0;0;0;0;0;0;5;0;23;2;0;0;0;0;0;6;0;0;2;0;0;0;0;0;7;0;0;0;0;0;0;8;0;0;0;0;0;0;9;0;1;0;0;0;0
04.12.17;19:50:00;1;619;10579;0;2;0;0;0;0;0;0;3;0;2;0;0;0;0;4;0;0;0;0;0;0;5;0;23;2;0;0;0;0;0;6;0;0;2;0;0;0;0;0;7;0;0;0;0;0;0;8;0;0;0;0;0;0;9;0;1;0;0;0;0
04.12.17;19:45:00;1;595;10505;0;2;0;0;0;0;0;0;3;0;2;0;0;0;0;4;0;0;0;0;0;0;5;0;23;2;0;0;0;0;0;6;0;0;2;0;0;0;0;0;7;0;0;0;0;0;0;8;0;0;0;0;0;0;9;0;1;0;0;0;0
04.12.17;19:40:00;1;881;10456;0;2;0;0;0;0;0;0;3;0;2;0;0;0;0;4;0;0;0;0;0;0;5;0;23;2;0;0;0;0;0;6;0;0;2;0;0;0;0;0;7;0;0;0;0;0;0;8;0;0;0;0;0;0;9;0;1;0;0;0;0
04.12.17;19:35:00;1;640;10377;0;2;0;0;0;0;0;0;3;0;2;0;0;0;0;4;0;0;0;0;0;0;5;0;23;2;0;0;0;0;0;6;0;0;2;0;0;0;0;0;7;0;0;0;0;0;0;8;0;0;0;0;0;0;9;0;1;0;0;0;0
04.12.17;19:30:00;1;693;10323;0;2;0;0;0;0;0;0;3;0;2;0;0;0;0;4;0;0;0;0;0;0;5;0;23;2;0;0;0;0;0;6;0;0;2;0;0;0;0;0;7;0;0;0;0;0;0;8;0;0;0;0;0;0;9;0;1;0;0;0;0
04.12.17;19:25:00;1;1557;10259;0;2;0;0;0;0;0;0;3;0;2;0;0;0;0;4;0;0;0;0;0;0;5;0;23;2;0;0;0;0;0;6;0;0;2;0;0;0;0;0;7;0;0;0;0;0;0;8;0;0;0;0;0;0;9;0;1;0;0;0;0
04.12.17;19:20:00;1;2721;10111;0;2;0;0;0;0;0;0;3;0;2;0;0;0;0;4;0;0;0;0;0;0;5;0;23;2;0;0;0;0;0;6;0;0;2;0;0;0;0;0;7;0;0;0;0;0;0;8;0;0;0;0;0;0;9;0;1;0;0;0;0
04.12.17;19:15:00;1;2154;9965;0;2;0;0;0;0;0;0;3;0;2;0;0;0;0;4;0;0;0;0;0;0;5;0;23;2;0;0;0;0;0;6;0;0;2;0;0;0;0;0;7;0;0;0;0;0;0;8;0;0;0;0;0;0;9;0;1;0;0;0;0
04.12.17;19:10:00;1;520;9838;0;2;0;0;0;0;0;0;3;0;2;0;0;0;0;4;0;0;0;0;0;0;5;0;23;2;0;0;0;0;0;6;0;0;2;0;0;0;0;0;7;0;0;0;0;0;0;8;0;0;0;0;0;0;9;0;1;0;0;0;0
04.12.17;19:05:00;1;469;9772;0;2;0;0;0;0;0;0;3;0;2;0;0;0;0;4;0;0;0;0;0;0;5;0;23;2;0;0;0;0;0;6;0;0;2;0;0;0;0;0;7;0;0;0;0;0;0;8;0;0;0;0;0;0;9;0;1;0;0;0;0
04.12.17;19:00:00;1;1194;9733;0;2;0;0;0;0;0;0;3;0;2;0;0;0;0;4;0;0;0;0;0;0;5;0;23;2;0;0;0;0;0;6;0;0;2;0;0;0;0;0;7;0;0;0;0;0;0;8;0;0;0;0;0;0;9;0;1;0;0;0;0
04.12.17;18:55:00;1;540;9654;0;2;0;0;0;0;0;0;3;0;2;0;0;0;0;4;0;0;0;0;0;0;5;0;23;2;0;0;0;0;0;6;0;0;2;0;0;0;0;0;7;0;0;0;0;0;0;8;0;0;0;0;0;0;9;0;1;0;0;0;0
04.12.17;18:50:00;1;534;9608;0;2;0;0;0;0;0;0;3;0;2;0;0;0;0;4;0;0;0;0;0;0;5;0;23;2;0;0;0;0;0;6;0;0;2;0;0;0;0;0;7;0;0;0;0;0;0;8;0;0;0;0;0;0;9;0;1;0;0;0;0
04.12.17;18:45:00;1;851;9556;0;2;0;0;0;0;0;0;3;0;2;0;0;0;0;4;0;0;0;0;0;0;5;0;23;2;0;0;0;0;0;6;0;0;2;0;0;0;0;0;7;0;0;0;0;0;0;8;0;0;0;0;0;0;9;0;1;0;0;0;0
04.12.17;18:40:00;1;518;9498;0;2;0;0;0;0;0;0;3;0;2;0;0;0;0;4;0;0;0;0;0;0;5;0;23;2;0;0;0;0;0;6;0;0;2;0;0;0;0;0;7;0;0;0;0;0;0;8;0;0;0;0;0;0;9;0;1;0;0;0;0
04.12.17;18:35:00;1;842;9454;0;2;0;0;0;0;0;0;3;0;2;0;0;0;0;4;0;0;0;0;0;0;5;0;23;2;0;0;0;0;0;6;0;0;2;0;0;0;0;0;7;0;0;0;0;0;0;8;0;0;0;0;0;0;9;0;1;0;0;0;0
04.12.17;18:30:00;1;626;9379;0;2;0;0;0;0;0;0;3;0;2;0;0;0;0;4;0;0;0;0;0;0;5;0;23;2;0;0;0;0;0;6;0;0;2;0;0;0;0;0;7;0;0;0;0;0;0;8;0;0;0;0;0;0;9;0;1;0;0;0;0
04.12.17;18:25:00;1;1044;9326;0;2;0;0;0;0;0;0;3;0;2;0;0;0;0;4;0;0;0;0;0;0;5;0;23;2;0;0;0;0;0;6;0;0;2;0;0;0;0;0;7;0;0;0;0;0;0;8;0;0;0;0;0;0;9;0;1;0;0;0;0
04.12.17;18:20:00;1;2011;9216;0;2;0;0;0;0;0;0;3;0;2;0;0;0;0;4;0;0;0;0;0;0;5;0;23;2;0;0;0;0;0;6;0;0;2;0;0;0;0;0;7;0;0;0;0;0;0;8;0;0;0;0;0;0;9;0;1;0;0;0;0
04.12.17;18:15:00;1;2169;9021;0;2;0;0;0;0;0;0;3;0;2;0;0;0;0;4;0;0;0;0;0;0;5;0;23;2;0;0;0;0;0;6;0;0;2;0;0;0;0;0;7;0;0;0;0;0;0;8;0;0;0;0;0;0;9;0;1;0;0;0;0
04.12.17;18:10:00;1;4109;8830;0;2;0;0;0;0;0;0;3;0;2;0;0;0;0;4;0;0;0;0;0;0;5;0;23;2;0;0;0;0;0;6;0;0;2;0;0;0;0;0;7;0;0;0;0;0;0;8;0;0;0;0;0;0;9;0;1;0;0;0;0
04.12.17;18:05:00;1;2057;8554;0;2;0;0;0;0;0;0;3;0;2;0;0;0;0;4;0;0;0;0;0;0;5;0;23;2;0;0;0;0;0;6;0;0;2;0;0;0;0;0;7;0;0;0;0;0;0;8;0;0;0;0;0;0;9;0;1;0;0;0;0
04.12.17;18:00:00;1;3242;8308;0;2;0;0;0;0;0;0;3;0;2;0;0;0;0;4;0;0;0;0;0;0;5;0;23;2;0;0;0;0;0;6;0;0;2;0;0;0;0;0;7;0;0;0;0;0;0;8;0;0;0;0;0;0;9;0;1;0;0;0;0
04.12.17;17:55:00;1;516;8078;0;2;0;0;0;0;0;0;3;0;2;0;0;0;0;4;0;0;0;0;0;0;5;0;23;2;0;0;0;0;0;6;0;0;2;0;0;0;0;0;7;0;0;0;0;0;0;8;0;0;0;0;0;0;9;0;1;0;0;0;0
04.12.17;17:50:00;1;491;8039;0;2;0;0;0;0;0;0;3;0;2;0;0;0;0;4;0;0;0;0;0;0;5;0;23;2;0;0;0;0;0;6;0;0;2;0;0;0;0;0;7;0;0;0;0;0;0;8;0;0;0;0;0;0;9;0;1;0;0;0;0
04.12.17;17:45:00;1;892;7997;0;2;0;0;0;0;0;0;3;0;2;0;0;0;0;4;0;0;0;0;0;0;5;0;23;2;0;0;0;0;0;6;0;0;2;0;0;0;0;0;7;0;0;0;0;0;0;8;0;0;0;0;0;0;9;0;1;0;0;0;0
04.12.17;17:40:00;1;1115;7886;0;2;0;0;0;0;0;0;3;0;2;0;0;0;0;4;0;0;0;0;0;0;5;0;23;2;0;0;0;0;0;6;0;0;2;0;0;0;0;0;7;0;0;0;0;0;0;8;0;0;0;0;0;0;9;0;1;0;0;0;0
04.12.17;17:35:00;1;2786;7820;0;2;0;0;0;0;0;0;3;0;2;0;0;0;0;4;0;0;0;0;0;0;5;0;23;2;0;0;0;0;0;6;0;0;2;0;0;0;0;0;7;0;0;0;0;0;0;8;0;0;0;0;0;0;9;0;1;0;0;0;0
04.12.17;17:30:00;1;2797;7583;0;2;0;0;0;0;0;0;3;0;2;0;0;0;0;4;0;0;0;0;0;0;5;0;23;2;0;0;0;0;0;6;0;0;2;0;0;0;0;0;7;0;0;0;0;0;0;8;0;0;0;0;0;0;9;0;1;0;0;0;0
04.12.17;17:25:00;1;2672;7346;0;2;0;0;0;0;0;0;3;0;2;0;0;0;0;4;0;0;0;0;0;0;5;0;23;2;0;0;0;0;0;6;0;0;2;0;0;0;0;0;7;0;0;0;0;0;0;8;0;0;0;0;0;0;9;0;1;0;0;0;0
04.12.17;17:20:00;1;2737;7104;0;2;0;0;0;0;0;0;3;0;2;0;0;0;0;4;0;0;0;0;0;0;5;0;23;2;0;0;0;0;0;6;0;0;2;0;0;0;0;0;7;0;0;0;0;0;0;8;0;0;0;0;0;0;9;0;1;0;0;0;0
04.12.17;17:15:00;1;648;6920;0;2;0;0;0;0;0;0;3;0;2;0;0;0;0;4;0;0;0;0;0;0;5;0;23;2;0;0;0;0;0;6;0;0;2;0;0;0;0;0;7;0;0;0;0;0;0;8;0;0;0;0;0;0;9;0;1;0;0;0;0
04.12.17;17:10:00;1;1218;6866;0;2;0;0;0;0;0;0;3;0;2;0;0;0;0;4;0;0;0;0;0;0;5;0;23;2;0;0;0;0;0;6;0;0;2;0;0;0;0;0;7;0;0;0;0;0;0;8;0;0;0;0;0;0;9;0;1;0;0;0;0
04.12.17;17:05:00;1;452;6793;0;2;0;0;0;0;0;0;3;0;2;0;0;0;0;4;0;0;0;0;0;0;5;0;23;2;0;0;0;0;0;6;0;0;2;0;0;0;0;0;7;0;0;0;0;0;0;8;0;0;0;0;0;0;9;0;1;0;0;0;0
04.12.17;17:00:00;1;402;6756;0;2;0;0;0;0;0;0;3;0;2;0;0;0;0;4;0;0;0;0;0;0;5;0;23;2;0;0;0;0;0;6;0;0;2;0;0;0;0;0;7;0;0;0;0;0;0;8;0;0;0;0;0;0;9;0;1;0;0;0;0
04.12.17;16:55:00;1;735;6716;0;2;0;0;0;0;0;0;3;0;2;0;0;0;0;4;0;0;0;0;0;0;5;0;23;2;0;0;0;0;0;6;0;0;2;0;0;0;0;0;7;0;0;0;0;0;0;8;0;0;0;0;0;0;9;0;1;0;0;0;0
04.12.17;16:50:00;1;380;6665;0;2;0;0;0;0;0;0;3;0;2;0;0;0;0;4;0;0;0;0;0;0;5;0;23;2;0;0;0;0;0;6;0;0;2;0;0;0;0;0;7;0;0;0;0;0;0;8;0;0;0;0;0;0;9;0;1;0;0;0;0
04.12.17;16:45:00;1;665;6633;0;2;0;0;0;0;0;0;3;0;2;0;0;0;0;4;0;0;0;0;0;0;5;0;23;2;0;0;0;0;0;6;0;0;2;0;0;0;0;0;7;0;0;0;0;0;0;8;0;0;0;0;0;0;9;0;1;0;0;0;0
04.12.17;16:40:00;1;329;6581;0;2;0;0;0;0;0;0;3;0;2;0;0;0;0;4;0;0;0;0;0;0;5;0;23;2;0;0;0;0;0;6;0;0;2;0;0;0;0;0;7;0;0;0;0;0;0;8;0;0;0;0;0;0;9;0;1;0;0;0;0
04.12.17;16:35:00;1;247;6554;0;2;0;0;0;0;0;0;3;0;2;0;0;0;0;4;0;0;0;0;0;0;5;0;23;2;0;0;0;0;0;6;0;0;2;0;0;0;0;0;7;0;0;0;0;0;0;8;0;0;0;0;0;0;9;0;1;0;0;0;0
04.12.17;16:30:00;1;349;6534;0;2;0;0;0;0;0;0;3;0;2;0;0;0;0;4;0;0;0;0;0;0;5;0;23;2;0;0;0;0;0;6;0;0;2;0;0;0;0;0;7;0;0;0;0;0;0;8;0;0;0;0;0;0;9;0;1;0;0;0;0
04.12.17;16:25:00;1;195;6493;0;2;0;0;0;0;0;0;3;0;2;0;0;0;0;4;0;0;0;0;0;0;5;0;23;2;0;0;0;0;0;6;0;0;2;0;0;0;0;0;7;0;0;0;0;0;0;8;0;0;0;0;0;0;9;0;1;0;0;0;0
04.12.17;16:20:00;1;793;6476;0;2;0;0;0;0;0;0;3;0;2;0;0;0;0;4;0;0;0;0;0;0;5;0;23;2;0;0;0;0;0;6;0;0;2;0;0;0;0;0;7;0;0;0;0;0;0;8;0;0;0;0;0;0;9;0;1;0;0;0;0
04.12.17;16:15:00;1;196;6434;0;2;0;0;0;0;0;0;3;0;2;0;0;0;0;4;0;0;0;0;0;0;5;0;23;2;0;0;0;0;0;6;0;0;2;0;0;0;0;0;7;0;0;0;0;0;0;8;0;0;0;0;0;0;9;0;1;0;0;0;0
04.12.17;16:10:00;1;193;6418;0;2;0;0;0;0;0;0;3;0;2;0;0;0;0;4;0;0;0;0;0;0;5;0;23;2;0;0;0;0;0;6;0;0;2;0;0;0;0;0;7;0;0;0;0;0;0;8;0;0;0;0;0;0;9;0;1;0;0;0;0
04.12.17;16:05:00;1;264;6402;0;2;0;0;0;0;0;0;3;0;2;0;0;0;0;4;0;0;0;0;0;0;5;0;23;2;0;0;0;0;0;6;0;0;2;0;0;0;0;0;7;0;0;0;0;0;0;8;0;0;0;0;0;0;9;0;1;0;0;0;0
04.12.17;16:00:00;1;193;6362;0;2;0;0;0;0;0;0;3;0;2;0;0;0;0;4;0;0;0;0;0;0;5;0;23;2;0;0;0;0;0;6;0;0;2;0;0;0;0;0;7;0;0;0;0;0;0;8;0;0;0;0;0;0;9;0;1;0;0;0;0
04.12.17;15:55:00;1;525;6345;0;2;0;0;0;0;0;0;3;0;2;0;0;0;0;4;0;0;0;0;0;0;5;0;23;2;0;0;0;0;0;6;0;0;2;0;0;0;0;0;7;0;0;0;0;0;0;8;0;0;0;0;0;0;9;0;1;0;0;0;0
04.12.17;15:50:00;1;218;6302;0;2;0;0;0;0;0;0;3;0;2;0;0;0;0;4;0;0;0;0;0;0;5;0;23;2;0;0;0;0;0;6;0;0;2;0;0;0;0;0;7;0;0;0;0;0;0;8;0;0;0;0;0;0;9;0;1;0;0;0;0
04.12.17;15:45:00;1;237;6284;0;2;0;0;0;0;0;0;3;0;2;0;0;0;0;4;0;0;0;0;0;0;5;0;23;2;0;0;0;0;0;6;0;0;2;0;0;0;0;0;7;0;0;0;0;0;0;8;0;0;0;0;0;0;9;0;1;0;0;0;0
04.12.17;15:40:00;1;531;6264;0;2;0;0;0;0;0;0;3;0;2;0;0;0;0;4;0;0;0;0;0;0;5;0;23;2;0;0;0;0;0;6;0;0;2;0;0;0;0;0;7;0;0;0;0;0;0;8;0;0;0;0;0;0;9;0;1;0;0;0;0
04.12.17;15:35:00;1;270;6217;0;2;0;0;0;0;72;1;3;0;2;0;0;0;0;4;0;0;0;0;0;0;5;0;23;2;0;0;0;0;0;6;0;0;2;0;0;0;0;0;7;0;0;0;0;0;0;8;0;0;0;0;0;0;9;0;1;0;0;0;0
04.12.17;15:30:00;1;661;6195;0;2;0;0;6;0;260;6;3;0;2;0;0;35;1;4;0;0;0;0;0;0;5;0;23;2;0;0;0;0;0;6;0;0;2;0;0;0;0;0;7;0;0;0;0;0;0;8;0;0;0;0;0;0;9;0;1;0;0;0;0
04.12.17;15:25:00;1;193;6155;0;2;0;0;6;0;267;6;3;0;2;6;0;259;10;4;0;0;0;0;0;0;5;0;23;2;0;0;0;0;0;6;0;0;0;0;0;0;0;0;7;0;0;0;0;0;0;8;0;0;0;0;0;0;9;0;1;0;0;0;0
04.12.17;15:20:00;1;212;6139;0;2;0;0;6;0;284;6;3;0;2;6;0;285;10;4;0;0;0;0;0;0;5;0;23;2;0;0;0;0;0;6;0;0;2;0;0;0;0;0;7;0;0;0;0;0;0;8;0;0;0;0;0;0;9;0;1;0;0;0;0
04.12.17;15:15:00;1;237;6121;0;2;0;0;6;0;292;6;3;0;2;6;0;293;10;4;0;0;0;0;0;0;5;0;23;2;0;0;0;0;0;6;0;0;2;0;0;0;0;0;7;0;0;0;0;0;0;8;0;0;0;0;0;0;9;0;1;0;0;0;0
04.12.17;15:10:00;1;257;6077;0;2;0;0;6;0;301;6;3;0;2;6;0;299;10;4;0;0;0;0;0;0;5;0;23;2;0;0;0;0;0;6;0;0;1;0;0;0;0;0;7;0;0;0;0;0;0;8;0;0;0;0;0;0;9;0;1;0;0;0;0
04.12.17;15:05:00;1;269;6056;0;2;0;0;6;0;303;6;3;0;2;6;0;301;10;4;0;0;0;0;0;0;5;0;23;2;0;0;0;0;0;6;0;0;1;0;0;0;0;0;7;0;0;0;0;0;0;8;0;0;0;0;0;0;9;0;1;0;0;0;0
04.12.17;15:00:00;1;633;6005;0;2;0;0;6;0;314;6;3;0;2;6;0;313;10;4;0;0;0;0;0;0;5;0;23;2;0;0;0;0;0;6;0;0;0;0;0;0;0;0;7;0;0;0;0;0;0;8;0;0;0;0;0;0;9;0;1;0;0;0;0
04.12.17;14:55:00;1;305;5977;0;2;0;0;6;0;321;6;3;0;2;6;0;328;10;4;0;0;0;0;0;0;5;0;23;2;0;0;0;0;0;6;0;0;2;0;0;0;0;0;7;0;0;0;0;0;0;8;0;0;0;0;0;0;9;0;1;0;0;0;0
04.12.17;14:50:00;1;970;5952;0;2;0;0;6;0;329;6;3;0;2;6;0;342;10;4;0;0;0;0;0;0;5;0;23;2;0;0;0;0;0;6;0;0;2;0;0;0;0;0;7;0;0;0;0;78;1;8;0;0;0;0;0;0;9;0;1;0;0;0;0
04.12.17;14:45:00;1;336;5897;0;2;0;0;6;0;319;6;3;0;2;6;0;318;10;4;0;0;0;0;0;0;5;0;23;2;0;0;0;0;0;6;0;0;1;0;0;0;0;0;7;0;0;0;0;0;0;8;0;0;0;0;0;0;9;0;1;0;0;0;0
04.12.17;14:40:00;1;347;5868;0;2;0;0;6;0;310;6;3;0;2;6;0;305;10;4;0;0;0;0;0;0;5;0;23;2;0;0;0;0;0;6;0;0;1;0;0;0;0;0;7;0;0;0;0;0;0;8;0;0;0;0;0;0;9;0;1;0;0;0;0
04.12.17;14:35:00;1;667;5839;0;2;0;0;6;0;305;6;3;0;2;6;0;303;10;4;0;0;0;0;0;0;5;0;23;2;0;0;0;0;0;6;0;0;1;0;0;0;0;0;7;0;0;0;0;0;0;8;0;0;0;0;0;0;9;0;1;0;0;0;0
04.12.17;14:30:00;1;250;5787;0;2;0;0;6;0;314;6;3;0;2;6;0;315;10;4;0;0;2;0;79;1;5;0;23;2;0;0;0;0;0;6;0;0;2;0;0;0;0;0;7;0;0;0;0;103;3;8;0;0;0;0;0;0;9;0;1;0;0;0;0
04.12.17;14:25:00;1;610;5766;0;2;0;0;6;0;329;6;3;0;2;6;0;351;10;4;0;0;1;0;90;1;5;0;23;2;0;0;0;0;0;6;0;0;2;0;0;0;0;0;7;0;0;6;0;271;8;8;0;0;0;0;0;0;9;0;1;0;0;0;0
04.12.17;14:20:00;1;191;5720;0;2;0;0;6;0;339;6;3;0;2;6;0;372;10;4;0;0;1;0;99;1;5;0;23;1;0;1;10;9;1;6;0;0;0;0;0;0;0;1;7;0;0;6;0;291;8;8;0;0;0;0;0;0;9;0;1;0;0;0;0
04.12.17;14:15:00;1;192;5704;0;2;0;0;6;0;346;6;3;0;2;6;0;386;10;4;0;0;1;0;105;1;5;0;23;2;0;0;0;0;0;6;0;0;2;0;0;0;0;3;7;0;0;6;0;304;8;8;0;0;0;0;0;0;9;0;1;0;0;0;0
04.12.17;14:10:00;1;575;5688;0;2;0;0;6;0;348;6;3;0;2;6;0;393;10;4;0;0;1;0;107;1;5;0;23;2;0;0;25;24;4;6;0;0;2;0;0;0;0;3;7;0;0;6;0;309;8;8;0;0;0;0;0;0;9;0;1;0;0;0;0
04.12.17;14:05:00;1;192;5648;0;2;0;0;6;0;343;6;3;0;2;6;0;385;10;4;0;0;1;0;104;1;5;0;23;1;85;87;16;15;2;6;0;0;1;0;0;0;0;3;7;0;0;6;0;305;8;8;0;0;0;0;0;0;9;0;1;0;0;0;0
04.12.17;14:00:00;1;194;5632;0;2;0;0;6;0;352;6;3;0;2;6;0;404;10;4;0;0;1;0;111;1;5;0;23;2;0;4;143;141;8;6;0;0;2;0;5;89;180;5;7;0;0;6;0;318;8;8;0;0;0;0;0;0;9;0;1;0;0;223;5
04.12.17;13:55:00;1;663;5593;0;2;0;0;6;0;368;6;3;0;2;6;0;433;10;4;0;0;1;0;131;1;5;0;23;1;0;2;326;336;13;6;0;0;23;1;7;180;497;11;7;0;0;6;0;360;8;8;0;0;0;0;204;5;9;0;1;6;0;300;6
04.12.17;13:50:00;1;209;5569;0;2;0;0;6;0;377;6;3;0;2;6;0;432;10;4;0;0;1;0;143;1;5;0;23;26;0;2;382;422;14;6;0;0;23;1;10;181;530;11;7;0;0;6;0;383;8;8;0;0;6;0;277;7;9;0;1;6;0;320;6
04.12.17;13:45:00;1;715;5551;0;2;0;0;6;0;382;6;3;0;2;3;3;419;10;4;0;0;1;0;150;1;5;0;23;23;0;5;385;410;14;6;0;0;23;1;9;181;541;11;7;0;0;6;0;396;8;8;0;0;6;0;291;7;9;0;1;6;0;336;6
04.12.17;13:40:00;1;238;5503;0;2;0;0;6;0;379;6;3;0;2;6;3;425;10;4;0;0;1;0;148;1;5;0;23;26;0;3;388;451;14;6;0;0;23;2;12;181;536;11;7;0;0;6;0;392;8;8;0;0;6;0;288;7;9;0;1;6;0;333;6
04.12.17;13:35:00;1;222;5483;0;2;0;0;6;0;375;6;3;0;2;6;1;433;10;4;0;0;1;0;142;1;5;0;23;23;0;2;372;390;14;6;0;0;23;0;6;181;525;11;7;0;0;6;0;382;8;8;0;0;6;0;278;7;9;0;1;6;0;322;6
04.12.17;13:30:00;1;590;5464;0;2;0;0;6;0;378;6;3;0;2;6;1;437;10;4;0;0;1;0;146;1;5;0;23;26;0;2;384;457;14;6;0;0;23;1;7;200;532;11;7;0;0;6;0;388;8;8;0;0;6;0;284;7;9;0;1;6;0;329;6
04.12.17;13:25:00;1;194;5424;0;2;0;0;6;0;378;6;3;0;2;6;1;430;10;4;0;0;1;0;146;1;5;0;23;23;0;3;384;398;14;6;0;0;23;1;9;181;530;11;7;0;0;6;0;389;8;8;0;0;6;0;283;7;9;0;1;6;0;329;6
04.12.17;13:20:00;1;589;5408;0;2;0;0;6;0;391;6;3;0;2;6;3;439;10;4;0;0;1;0;166;1;5;0;23;26;0;6;402;415;14;6;0;0;23;0;7;181;556;11;7;0;0;6;0;396;8;8;0;0;6;0;320;7;9;0;1;6;0;370;6
04.12.17;13:15:00;1;194;5363;0;2;0;0;6;0;389;6;3;0;2;6;0;479;10;4;0;0;1;0;163;1;5;0;23;23;0;4;400;458;14;6;0;0;23;1;8;181;553;11;7;0;0;6;0;416;8;8;0;0;6;0;316;7;9;0;1;6;0;369;6
04.12.17;13:10:00;1;191;5346;0;2;0;0;6;0;385;6;3;0;2;4;3;432;10;4;0;0;1;0;155;1;5;0;23;23;0;4;392;432;14;6;0;0;23;1;7;181;542;11;7;0;0;6;0;404;8;8;0;0;6;0;301;7;9;0;1;6;0;353;6
04.12.17;13:05:00;1;675;5330;0;2;0;0;6;0;390;6;3;0;2;3;4;433;10;4;0;0;1;0;163;1;5;0;23;26;0;5;400;401;14;6;0;0;23;1;8;181;551;11;7;0;0;6;0;415;8;8;0;0;6;0;317;7;9;0;1;6;0;371;6
04.12.17;13:00:00;1;254;5286;0;2;0;0;6;0;394;6;3;0;2;6;1;467;10;4;0;0;1;0;172;1;5;0;23;26;0;6;409;454;14;6;0;0;23;1;8;181;559;11;7;0;0;6;0;406;8;8;0;0;6;0;338;7;9;0;1;6;0;394;6
04.12.17;12:55:00;1;256;5265;0;2;0;0;6;0;397;6;3;0;2;6;4;441;10;4;0;0;1;0;176;1;5;0;23;23;0;8;411;430;14;6;0;0;23;0;7;236;564;11;7;0;0;6;0;436;8;8;0;0;6;0;347;7;9;0;1;6;0;406;6
04.12.17;12:50:00;1;679;5232;0;2;0;0;6;0;400;6;3;0;2;6;1;477;10;4;0;0;1;0;182;1;5;0;23;23;0;6;417;532;14;6;0;0;23;0;7;182;567;11;7;0;0;6;0;427;8;8;0;0;6;0;360;7;9;0;1;6;0;404;6
04.12.17;12:45:00;1;368;5187;0;2;0;0;6;0;401;6;3;0;2;6;2;477;10;4;0;0;1;0;184;1;5;5;23;1;2;7;407;501;14;6;0;0;23;0;7;181;570;11;7;0;0;3;0;408;8;8;0;0;6;0;366;7;9;0;1;6;0;396;6
04.12.17;12:40:00;1;723;5148;0;2;0;0;6;0;404;6;3;0;2;6;2;486;10;4;0;0;1;0;190;1;5;5;23;1;1;8;410;582;14;6;0;0;23;1;6;182;574;11;7;0;0;6;0;436;8;8;0;0;6;0;378;7;9;0;1;6;0;422;6
04.12.17;12:35:00;1;294;5106;0;2;0;0;6;0;401;6;3;0;2;4;2;461;10;4;0;0;1;0;184;1;5;0;22;26;0;6;420;606;14;6;0;0;23;0;8;182;569;11;7;0;0;6;0;425;8;8;0;0;6;0;368;7;9;0;1;6;0;411;6
04.12.17;12:30:00;1;650;5081;0;2;0;0;6;0;408;6;3;0;2;6;4;468;10;4;0;0;1;0;199;1;5;5;22;4;1;8;416;647;13;6;0;0;23;0;7;182;580;11;7;0;0;6;1;436;8;8;0;0;6;0;401;7;9;0;1;6;0;443;6
04.12.17;12:25:00;1;192;5031;0;2;0;0;6;0;406;6;3;1;2;6;2;487;10;4;0;0;1;0;197;1;5;7;22;4;2;8;413;641;14;6;0;0;23;0;7;182;578;11;7;0;0;6;1;441;8;8;0;0;6;0;399;7;9;0;1;6;0;439;6
04.12.17;12:20:00;1;191;5015;0;2;0;0;6;0;399;6;3;0;2;6;1;475;10;4;0;0;1;0;184;1;5;3;21;1;0;9;416;520;14;6;0;0;23;1;8;225;571;11;7;0;0;6;0;430;8;8;0;0;6;0;375;7;9;0;1;6;0;431;6
04.12.17;12:15:00;1;263;4999;0;2;0;0;6;0;393;6;3;0;2;6;2;468;10;4;0;0;1;0;173;1;5;0;21;26;0;7;413;467;14;6;0;0;23;1;9;181;561;11;7;0;0;6;0;419;8;8;0;0;6;0;353;7;9;0;1;4;0;400;6
04.12.17;12:10:00;1;192;4953;0;2;0;0;6;0;393;6;3;0;2;6;1;474;10;4;0;0;1;0;174;1;5;0;21;23;0;6;415;583;14;6;0;0;23;1;8;182;562;11;7;0;0;3;0;402;8;8;0;0;6;0;355;7;9;0;1;6;0;404;6
04.12.17;12:05:00;1;194;4936;0;2;0;0;6;0;398;6;3;0;2;6;0;481;10;4;0;0;1;0;184;1;5;6;21;4;1;8;406;478;14;6;0;0;23;1;8;182;569;11;7;0;0;6;0;423;8;8;0;0;6;0;376;7;9;0;1;6;0;409;6
04.12.17;12:00:00;1;578;4905;0;2;0;0;6;0;396;6;3;0;2;3;3;457;10;4;0;0;1;0;181;1;5;0;20;26;0;8;418;495;14;6;0;0;23;1;10;182;567;11;7;0;0;6;0;420;8;8;0;0;6;0;371;7;9;1;1;6;0;409;6
04.12.17;11:55:00;1;192;4874;0;2;0;0;6;0;392;6;3;0;2;6;2;444;10;4;0;0;1;0;174;1;5;0;20;23;0;8;412;442;14;6;0;0;23;1;7;181;561;11;7;0;0;6;0;400;8;8;0;0;6;0;361;7;9;0;1;6;0;412;6
04.12.17;11:50:00;1;484;4858;0;2;0;0;6;0;397;6;3;0;2;6;1;480;10;4;0;0;1;0;184;1;5;6;20;1;1;7;411;632;13;6;0;0;23;1;8;182;569;11;7;0;0;6;0;424;8;8;0;0;6;0;379;7;9;0;1;6;0;429;6
04.12.17;11:45:00;1;237;4816;0;2;0;0;6;0;397;6;3;0;2;6;2;476;10;4;0;0;1;0;185;1;5;6;20;26;1;7;410;610;13;6;0;0;23;1;9;181;570;11;7;0;0;6;0;422;8;8;0;0;6;0;384;7;9;1;1;6;0;432;6
04.12.17;11:40:00;1;252;4796;0;2;0;0;6;0;396;6;3;0;2;6;1;459;10;4;0;0;1;0;183;1;5;0;19;26;0;7;422;590;13;6;0;0;23;1;8;182;569;11;7;0;0;6;0;420;8;8;0;0;6;0;380;7;9;0;1;6;0;431;6